Home > Weather > Fort Wayne > Past weeks

Flag for USA Past Weather in Fort Wayne, Indiana, USA — Yesterday and Last 2 Weeks

Now
74 °F

Partly cloudy.


Feels Like: 74 °F
Forecast: 68 / 83 °F
Wind: 6 mph from Northwest

Location: Fort Wayne International Airport

Current Time: Jul 29, 2016 at 12:12:42 AM

Latest Report: Jul 28, 2016 at 11:54 PM


Visibility: 10 mi

Pressure: 29.89 "Hg

Humidity: 82%

Dew Point: 68 °F

Location of Fort WayneLocation

Past Weather in Fort Wayne — Graph

°F

Fort Wayne Temperature Yesterday

Maximum temperature yesterday: 86 °F (at 3:54 PM)
Minimum temperature yesterday: 67 °F (at 6:54 AM)
Average temperature yesterday: 77 °F

High & Low Weather Summary for the Past Weeks

 TemperatureHumidityPressure
High91 °F (Jul 23, 2:54 PM)96% (Jul 23, 5:54 AM)30.26 "Hg (Jul 23, 5:54 AM)
Low55 °F (Jul 17, 4:54 AM)36% (Jul 27, 2:54 PM)29.84 "Hg (Jul 28, 4:54 PM)
Average76 °F72%30.03 "Hg
* Reported Jul 13 10:54 PM — Jul 28 10:54 PM, Fort Wayne, Weather by CustomWeather, © 2016

Note: Actual official high and low records may vary slightly from our data, if they occured in-between our weather recording intervals... More about our weather records

Advertising

Fort Wayne Weather History for the Previous 24 Hours

Scroll right to see more
 ConditionsComfort  
Time TempWeatherWind HumidityBarometerVisibility
10:54 PM
Thu, Jul 28
75 °FPassing clouds.5 mph82%29.88 "Hg10 mi
9:54 PM74 °FBroken clouds.No wind91%29.88 "Hg10 mi
8:54 PM76 °FPartly sunny.No wind82%29.86 "Hg10 mi
7:54 PM79 °FPartly sunny.3 mph74%29.86 "Hg10 mi
6:54 PM82 °FLight rain. Broken clouds.7 mph60%29.86 "Hg9 mi
5:54 PM85 °FBroken clouds.5 mph48%29.85 "Hg10 mi
4:54 PM85 °FPartly sunny.7 mph48%29.84 "Hg10 mi
3:54 PM86 °FBroken clouds.5 mph48%29.85 "Hg10 mi
2:54 PM85 °FOvercast.6 mph53%29.86 "Hg10 mi
1:54 PM85 °FOvercast.6 mph51%29.88 "Hg10 mi
12:54 PM84 °FHigh level clouds.5 mph53%29.88 "Hg10 mi
11:54 AM81 °FHigh level clouds.5 mph58%29.89 "Hg10 mi
10:54 AM81 °FHigh level clouds.5 mph60%29.89 "Hg10 mi
9:54 AM78 °FPartly sunny.3 mph66%29.90 "Hg10 mi
8:54 AM74 °FPartly sunny.3 mph76%29.91 "Hg10 mi
7:54 AM70 °FOvercast.3 mph84%29.90 "Hg10 mi
6:54 AM67 °FMostly cloudy.No wind90%29.90 "Hg10 mi
5:54 AM68 °FMostly cloudy.No wind87%29.88 "Hg10 mi
4:54 AM69 °FMostly cloudy.5 mph84%29.88 "Hg10 mi
3:54 AM69 °FPassing clouds.5 mph84%29.88 "Hg10 mi
2:54 AM71 °FPassing clouds.No wind81%29.89 "Hg10 mi
1:54 AM71 °FPassing clouds.No wind81%29.93 "Hg10 mi
12:54 AM69 °FPassing clouds.No wind84%29.94 "Hg10 mi
Weather by CustomWeather, © 2016

See weather overviewHow to use our weather pages